Regional Weather Roundup
Issued by NWS State College, PA

Home | Current Version | Previous Version | Text Only | Print | Product List | Glossary Off
Versions: 1 2 3 4 5 6 7 8 9 10 11 12 13 14 15 16 17 18 19 20 21 22 23 24 25 26 27 28 29 30 31 32 33 34 35 36 37 38 39 40 41 42 43 44 45 46 47 48 49 50

000
ASUS41 KCTP 100603
RWRCTP

REGIONAL WEATHER ROUNDUP
NATIONAL WEATHER SERVICE STATE COLLEGE PA
100 AM EST SAT DEC 10 2016

Note: "fair" indicates few or no clouds below 12,000 feet with no
significant weather and/or obstructions to visibility.

* = STATION THAT DOES NOT REPORT PRECIPITATION /E.G. RAIN...SNOW...ETC/
    THUNDER OR FOG.

PAZ002>004-007>009-013>016-020>023-029>032-100700-
WESTERN PENNSYLVANIA

CITY           SKY/WX    TMP DP  RH WIND       PRES   REMARKS
ERIE           LGT SNOW  28  24  85 W15G24    30.34S FOG
MEADVILLE      LGT SNOW  23  19  85 W15       30.32S FOG     WCI  10
FRANKLIN*        N/A     21  16  79 W12       30.33S WCI   9
NEW CASTLE     CLOUDY    25  19  78 W13G20    30.38F WCI  14
BEAVER COUNTY  NOT AVBL
BUTLER*        CLOUDY    25  16  68 W13G23    30.40S WCI  13
PITTSBURGH INT MOCLDY    24  19  81 SW8       30.39S
PITTSBURGH     PTCLDY    23  16  74 W13       30.38S WCI  11
INDIANA*       CLOUDY    25  19  80 W14G20    30.37S WCI  13
LATROBE        CLOUDY    23  19  86 SW8       30.40S WCI  14
WASHINGTON CO* CLOUDY    25  18  74 SW9       30.41S
$$

PAZ004>006-010>012-017>019-024>028-033>037-041-042-045-046-049>053-100700-
CENTRAL PENNSYLVANIA

CITY           SKY/WX    TMP DP  RH WIND       PRES   REMARKS
BRADFORD       LGT SNOW  21  19  92 W9        30.22F FOG     WCI  11
DUBOIS         LGT SNOW  21  17  84 W12       30.27F FOG     WCI   9
CLEARFIELD     LGT SNOW  23  19  85 W8        30.30F FOG     WCI  14
JOHNSTOWN      CLOUDY    20  16  84 W17G28    30.28S WCI   5
ALTOONA        CLOUDY    25  16  68 W12       30.34S WCI  14
STATE COLLEGE  CLOUDY    24  17  73 W10G20    30.31F WCI  14
WILLIAMSPORT   CLOUDY    29  22  75 W10       30.31S
SELINSGROVE    CLOUDY    28  20  71 W5        30.35R
FT INDIANTOWN  CLEAR     28  16  60 W7        30.35R
CAPITAL CITY   CLEAR     27  16  63 W6        30.37S
HARRISBURG     PTCLDY    30  19  63 W10       30.36S
YORK           CLEAR     25  17  72 W5        30.37S
$$

PAZ038>040-043-044-047-048-054-055-060>062-067>071-100700-
EASTERN PENNSYLVANIA

CITY           SKY/WX    TMP DP  RH WIND       PRES   REMARKS
SCRANTON       CLOUDY    25  15  66 SW5       30.26S
MOUNT POCONO   CLEAR     19  11  70 NW10      30.17S WCI   7
ALLENTOWN      MOCLDY    23  18  81 SW6       30.31R
QUAKERTOWN*    CLOUDY    28  23  80 W6        30.32R
READING        PTCLDY    29  17  61 W10       30.33R
LANCASTER      CLEAR     27  19  72 W10       30.35R
COATESVILLE    PTCLDY    27  19  74 W13       30.35R
POTTSTOWN      CLOUDY    29  20  69 W5        30.35R
BLUE BELL      CLOUDY    30  23  74 W3        30.34R
DOYLESTOWN     CLEAR     28  22  78 W7        30.31R
WILLOW GROVE   NOT AVBL
NORTH PHILA    PTCLDY    30  21  69 W8        30.36R
PHILADELPHIA   MOCLDY    31  18  58 W13       30.38R
$$



USA.gov is the U.S. government's official web portal to all federal, state and local government web resources and services.